1514854800.6,43934,6.75,72432.8,-9.07,-35.23,-35.35,0,*50
1514854801.84,43935,6.75,72438.0,-9.07,-35.29,-35.29,0,*56
1514854803.09,43936,6.75,72440.5,-9.07,-35.13,-35.23,0,*56
1514854804.33,43937,6.75,72440.3,-9.05,-35.17,-35.23,0,*51
1514854805.54,43938,6.75,72440.8,-9.05,-34.89,-35.01,0,*58
1514854806.76,43939,6.75,72436.8,-9.05,-34.71,-34.89,0,*5F
1514854808.0,43940,6.75,72438.0,-9.05,-34.83,-34.89,0,*5C
1514854809.26,43941,6.75,72440.0,-9.07,-34.89,-34.95,0,*58
1514854810.5,43942,6.69,72432.3,-9.09,-34.89,-34.95,0,*55
1514854811.76,43943,6.75,72436.8,-9.07,-34.89,-35.07,0,*50
1514854813.03,43944,6.75,72436.5,-9.07,-34.77,-34.95,0,*5C
1514854814.29,43945,6.75,72438.0,-9.07,-34.89,-34.95,0,*5C
1514854815.51,43946,6.75,72434.5,-9.05,-34.71,-34.89,0,*57
1514854816.75,43947,6.75,72432.3,-9.05,-35.01,-35.07,0,*57
1514854817.96,43948,6.75,72432.5,-9.05,-34.89,-35.01,0,*5F
1514854819.18,43949,6.75,72432.0,-9.05,-34.89,-35.01,0,*5E
1514854820.42,43950,6.75,72434.8,-9.05,-35.07,-35.17,0,*56
1514854821.69,43951,6.75,72432.5,-9.05,-35.07,-35.23,0,*50
1514854822.89,43952,6.75,72432.0,-9.05,-35.17,-35.17,0,*55
1514854824.16,43953,6.75,72440.5,-9.05,-35.07,-35.23,0,*52
1514854825.42,43954,6.75,72438.3,-9.05,-35.07,-35.23,0,*55
1514854826.66,43955,6.75,72440.3,-9.05,-35.17,-35.23,0,*55
1514854827.87,43956,6.75,72436.3,-9.05,-35.01,-35.17,0,*56
1514854829.14,43957,6.75,72436.8,-9.03,-35.01,-35.07,0,*50
1514854830.37,43958,6.75,72438.3,-9.05,-34.89,-35.07,0,*58
1514854831.62,43959,6.75,72438.0,-9.05,-34.53,-34.71,0,*5E
1514854832.88,43960,6.75,72436.5,-9.03,-34.71,-34.83,0,*5F
1514854834.16,43961,6.75,72440.0,-9.05,-34.53,-34.65,0,*50
1514854835.4,43962,6.75,72438.3,-9.05,-34.71,-34.83,0,*5B
1514854836.64,43963,6.75,72440.8,-9.03,-34.71,-34.89,0,*56
1514854837.86,43964,6.75,72436.8,-9.05,-34.47,-34.71,0,*55
1514854839.15,43965,6.75,72438.0,-9.03,-34.65,-34.83,0,*5F
1514854840.39,43966,6.75,72438.8,-9.03,-34.89,-35.01,0,*55
1514854841.64,43967,6.75,72438.0,-9.03,-35.01,-35.01,0,*55
1514854842.91,43968,6.75,72438.8,-9.03,-34.65,-34.71,0,*5F
1514854844.18,43969,6.75,72434.3,-9.03,-34.47,-34.65,0,*5B
1514854845.43,43970,6.75,72438.8,-9.05,-34.83,-35.01,0,*5E
1514854846.67,43971,6.75,72438.8,-9.03,-34.71,-34.89,0,*55
1514854847.93,43972,6.75,72438.0,-9.03,-34.83,-34.89,0,*5B
1514854849.2,43973,6.75,72438.3,-9.03,-34.83,-35.01,0,*5B
1514854850.45,43974,6.75,72440.0,-9.03,-34.71,-34.89,0,*50
1514854851.74,43975,6.75,72436.5,-9.03,-34.65,-34.83,0,*5E
1514854852.98,43976,6.75,72436.3,-9.03,-34.47,-34.71,0,*50
1514854854.22,43977,6.75,72440.0,-9.05,-34.71,-34.83,0,*5F
1514854855.48,43978,6.75,72436.3,-9.03,-34.89,-35.07,0,*5C
1514854856.74,43979,6.75,72440.3,-9.03,-34.89,-35.07,0,*5D
1514854858.01,43980,6.75,72440.8,-8.99,-34.83,-35.01,0,*55
1514854859.28,43981,6.75,72438.5,-8.99,-34.83,-35.01,0,*54
1514854860.54,43982,6.75,72440.3,-8.99,-34.95,-35.01,0,*50
1514854861.77,43983,6.75,72440.0,-8.99,-35.13,-35.17,0,*59
1514854863.04,43984,6.75,72440.5,-8.99,-34.95,-35.01,0,*56
1514854864.31,43985,6.75,72442.5,-9.05,-35.07,-35.07,0,*5F
1514854865.6,43986,6.75,72440.0,-9.03,-34.65,-34.83,0,*52
1514854866.89,43987,6.75,72440.0,-9.03,-34.53,-34.65,0,*5E
1514854868.16,43988,6.75,72442.3,-8.99,-34.83,-35.01,0,*5D
1514854869.4,43989,6.75,72438.3,-8.99,-35.01,-35.13,0,*54
1514854870.64,43990,6.75,72438.5,-8.99,-35.13,-35.13,0,*5F
1514854871.89,43991,6.75,72440.5,-9.03,-35.17,-35.23,0,*5B
1514854873.16,43992,6.75,72442.5,-9.03,-35.23,-35.29,0,*55
1514854874.4,43993,6.75,72438.8,-9.03,-34.71,-34.89,0,*59
1514854875.66,43994,6.75,72436.5,-8.99,-34.31,-34.59,0,*55
1514854876.93,43995,6.75,72438.5,-8.99,-34.83,-34.77,0,*51
1514854878.17,43996,6.75,72438.5,-9.03,-35.01,-35.01,0,*5B
1514854879.41,43997,6.75,72440.0,-9.03,-35.01,-35.17,0,*5D
1514854880.67,43998,6.75,72440.3,-9.03,-34.89,-35.07,0,*52
1514854881.89,43999,6.75,72438.3,-8.97,-35.01,-35.01,0,*58
1514854883.13,44000,6.75,72442.0,-9.03,-35.17,-35.29,0,*57
1514854884.42,44001,6.75,72438.0,-9.03,-35.07,-35.23,0,*5D
1514854885.71,44002,6.75,72440.8,-9.03,-35.07,-35.23,0,*5E
1514854887.0,44003,6.75,72440.3,-9.03,-35.07,-35.07,0,*59
1514854888.22,44004,6.75,72442.3,-9.05,-35.01,-35.17,0,*5F
1514854889.47,44005,6.75,72442.5,-9.03,-34.89,-35.07,0,*58
1514854890.72,44006,6.75,72442.3,-9.03,-34.89,-35.01,0,*5D
1514854891.96,44007,6.75,72440.5,-9.05,-34.83,-35.01,0,*50
1514854893.2,44008,6.75,72442.0,-9.03,-35.01,-35.17,0,*55
1514854894.43,44009,6.75,72442.0,-9.03,-35.17,-35.17,0,*53
1514854895.69,44010,6.75,72442.5,-9.05,-35.23,-35.23,0,*5D
1514854896.94,44011,6.75,72444.8,-9.03,-35.29,-35.29,0,*5A
1514854898.15,44012,6.75,72440.3,-9.05,-35.17,-35.29,0,*52
1514854899.4,44013,6.75,72444.0,-9.05,-35.23,-35.29,0,*54
1514854900.61,44014,6.75,72442.3,-9.05,-35.17,-35.29,0,*54
1514854901.85,44015,6.75,72440.5,-9.03,-34.71,-34.89,0,*59
1514854903.12,44016,6.75,72442.3,-9.05,-34.53,-34.83,0,*56
1514854904.41,44017,6.75,72440.0,-9.03,-34.83,-34.83,0,*5C
1514854905.67,44018,6.75,72444.0,-9.03,-34.71,-34.83,0,*5E
1514854906.96,44019,6.75,72442.3,-9.03,-34.83,-34.83,0,*52
1514854908.2,44020,6.69,72442.3,-9.05,-35.01,-35.07,0,*58
1514854909.47,44021,6.75,72444.0,-9.03,-35.01,-35.23,0,*59
1514854910.71,44022,6.75,72440.8,-9.03,-35.01,-35.17,0,*5D
1514854911.95,44023,6.75,72440.0,-9.03,-35.17,-35.29,0,*56
1514854913.21,44024,6.69,72442.0,-9.05,-35.23,-35.41,0,*5E
1514854914.5,44025,6.69,72440.3,-9.03,-35.23,-35.41,0,*59
1514854915.76,44026,6.75,72440.5,-9.05,-35.23,-35.41,0,*5C
1514854917.0,44027,6.75,72440.3,-9.05,-34.89,-35.07,0,*5E
1514854918.21,44028,6.75,72440.0,-9.05,-34.89,-34.89,0,*56
1514854919.44,44029,6.75,72438.5,-9.05,-35.17,-35.23,0,*50
1514854920.7,44030,6.75,72440.3,-9.05,-35.07,-35.23,0,*59
1514854921.96,44031,6.69,72436.8,-9.03,-35.17,-35.23,0,*5F
1514854923.2,44032,6.75,72438.8,-9.05,-35.23,-35.29,0,*57
1514854924.45,44033,6.75,72438.8,-9.05,-35.07,-35.29,0,*50
1514854925.7,44034,6.75,72440.5,-9.05,-35.07,-35.29,0,*57
1514854926.92,44035,6.69,72438.5,-9.05,-35.17,-35.29,0,*57
1514854928.16,44036,6.75,72440.3,-9.05,-35.07,-35.29,0,*55
1514854929.45,44037,6.75,72440.8,-9.07,-35.23,-35.35,0,*5D
1514854930.73,44038,6.75,72442.5,-9.07,-35.23,-35.35,0,*52
1514854931.98,44039,6.75,72442.8,-9.07,-35.13,-35.23,0,*57
1514854933.22,44040,6.75,72440.0,-9.05,-34.89,-35.07,0,*5F
1514854934.46,44041,6.69,72442.5,-9.05,-35.07,-35.17,0,*58
1514854935.7,44042,6.75,72442.8,-9.05,-35.07,-35.17,0,*5B
1514854936.95,44043,6.75,72442.8,-9.09,-35.07,-35.13,0,*52
1514854938.18,44044,6.75,72442.3,-9.07,-35.13,-35.13,0,*5E
1514854939.45,44045,6.75,72442.5,-9.07,-35.23,-35.29,0,*55
1514854940.71,44046,6.69,72440.0,-9.07,-34.77,-34.95,0,*50
1514854941.97,44047,6.75,72442.8,-9.07,-34.89,-35.07,0,*5A
1514854943.23,44048,6.75,72442.8,-9.07,-35.07,-35.13,0,*57
1514854944.5,44049,6.75,72442.3,-9.07,-35.07,-35.13,0,*56
1514854945.77,44050,6.75,72440.5,-9.07,-34.95,-35.13,0,*54
1514854947.05,44051,6.75,72442.8,-9.07,-35.07,-35.23,0,*5C
1514854948.32,44052,6.75,72442.5,-9.07,-35.07,-35.13,0,*5C
1514854949.55,44053,6.69,72440.8,-9.05,-34.89,-35.07,0,*5D
1514854950.82,44054,6.69,72442.0,-9.07,-35.07,-35.13,0,*5A
1514854952.06,44055,6.75,72442.8,-9.09,-35.07,-35.13,0,*55
1514854953.32,44056,6.69,72442.0,-9.07,-34.89,-34.95,0,*50
1514854954.57,44057,6.75,72446.8,-9.07,-34.71,-34.89,0,*5B
1514854955.82,44058,6.75,72446.8,-9.07,-35.13,-35.23,0,*50
1514854957.08,44059,6.75,72444.5,-9.07,-34.77,-35.07,0,*54
1514854958.32,44060,6.75,72442.5,-9.07,-34.59,-34.89,0,*55
1514854959.56,44061,6.75,72446.0,-9.07,-34.59,-34.77,0,*55
1514854960.81,44062,6.75,72444.0,-9.07,-34.71,-34.77,0,*5C
1514854962.02,44063,6.75,72440.3,-9.05,-34.71,-34.89,0,*5E
1514854963.23,44064,6.75,72440.8,-9.05,-34.89,-35.17,0,*58
1514854964.48,44065,6.75,72442.8,-9.05,-35.07,-35.17,0,*5E
1514854965.74,44066,6.75,72440.0,-9.05,-35.07,-35.07,0,*5C
1514854966.96,44067,6.75,72442.3,-9.05,-34.89,-35.01,0,*5C
1514854968.2,44068,6.75,72442.5,-9.03,-34.89,-35.01,0,*55
1514854969.43,44069,6.75,72444.5,-9.05,-34.89,-35.07,0,*54
1514854970.65,44070,6.69,72440.0,-9.05,-34.89,-35.01,0,*5A
1514854971.89,44071,6.69,72440.5,-9.05,-34.53,-34.71,0,*5A
1514854973.14,44072,6.75,72442.0,-9.05,-34.47,-34.65,0,*59
1514854974.4,44073,6.69,72436.3,-9.05,-34.47,-34.65,0,*58
1514854975.68,44074,6.69,72440.8,-9.03,-34.53,-34.83,0,*54
1514854976.97,44075,6.75,72446.3,-9.03,-34.53,-34.83,0,*55
1514854978.24,44076,6.75,72440.3,-9.03,-34.31,-34.47,0,*5A
1514854979.53,44077,6.75,72442.8,-9.03,-34.31,-34.65,0,*5B
1514854980.82,44078,6.75,72440.5,-9.03,-34.65,-34.83,0,*5D
1514854982.06,44079,6.75,72442.8,-9.03,-34.89,-35.01,0,*55
1514854983.35,44080,6.69,72444.0,-8.99,-34.83,-34.95,0,*57
1514854984.59,44081,6.75,72444.8,-9.03,-35.01,-35.17,0,*54
1514854985.84,44082,6.75,72444.3,-9.03,-34.71,-34.89,0,*57
1514854987.12,44083,6.75,72446.3,-9.03,-34.83,-34.83,0,*51
1514854988.39,44084,6.75,72440.5,-9.03,-34.65,-34.89,0,*54
1514854989.65,44085,6.75,72444.5,-9.03,-34.83,-34.89,0,*5D
1514854990.89,44086,6.75,72442.8,-9.03,-34.71,-34.89,0,*53
1514854992.16,44087,6.69,72442.0,-9.03,-34.35,-34.47,0,*50
1514854993.41,44088,6.69,72436.3,-8.99,-34.25,-34.31,0,*5D
1514854994.68,44089,6.69,72436.5,-8.99,-34.41,-34.65,0,*5F
1514854995.94,44090,6.69,72438.8,-8.99,-34.95,-35.13,0,*5E
1514854997.18,44091,6.75,72440.5,-8.99,-35.13,-35.13,0,*50
1514854998.41,44092,6.75,72440.0,-8.99,-35.13,-35.17,0,*57
1514854999.66,44093,6.75,72442.0,-8.99,-35.13,-35.23,0,*51
1514855000.91,44094,6.69,72442.8,-9.03,-35.17,-35.23,0,*50
1514855002.18,44095,6.69,72440.3,-8.99,-34.95,-35.13,0,*5B
1514855003.43,44096,6.75,72442.5,-8.99,-35.13,-35.23,0,*54
1514855004.69,44097,6.75,72440.8,-8.99,-35.13,-35.23,0,*55
1514855005.96,44098,6.75,72442.5,-9.03,-34.65,-34.71,0,*5E
1514855007.23,44099,6.69,72442.0,-9.03,-34.47,-34.65,0,*5A
1514855008.48,44100,6.69,72442.3,-9.03,-34.47,-34.71,0,*5E
1514855009.72,44101,6.69,72440.8,-9.03,-34.89,-35.01,0,*5B
1514855010.99,44102,6.69,72440.3,-9.03,-35.07,-35.29,0,*55
1514855012.23,44103,6.75,72442.3,-8.99,-35.01,-35.01,0,*5A
1514855013.5,44104,6.75,72440.5,-8.99,-34.83,-35.13,0,*55
1514855014.76,44105,6.75,72440.3,-8.99,-35.01,-35.23,0,*5C
1514855016.02,44106,6.69,72442.5,-8.99,-34.95,-35.17,0,*54
1514855017.29,44107,6.75,72444.0,-8.99,-34.83,-35.01,0,*55
1514855018.52,44108,6.75,72444.3,-9.03,-35.17,-35.29,0,*5E
1514855019.76,44109,6.69,72440.0,-9.03,-35.17,-35.29,0,*5F
1514855021.0,44110,6.69,72444.0,-9.03,-35.17,-35.47,0,*5F
1514855022.29,44111,6.69,72440.3,-9.03,-35.07,-35.23,0,*5D
1514855023.53,44112,6.69,72440.3,-9.03,-35.17,-35.29,0,*55
1514855024.77,44113,6.75,72444.0,-9.05,-35.23,-35.47,0,*5D
1514855026.02,44114,6.75,72444.0,-9.05,-35.07,-35.29,0,*54
1514855027.23,44115,6.69,72438.0,-9.05,-34.89,-35.01,0,*58
1514855028.45,44116,6.69,72440.3,-9.05,-34.47,-34.71,0,*5F
1514855029.74,44117,6.75,72442.5,-9.03,-34.83,-35.07,0,*50
1514855030.99,44118,6.69,72440.3,-9.05,-35.01,-35.23,0,*54
1514855032.25,44119,6.69,72440.8,-9.05,-35.07,-35.23,0,*53
1514855033.52,44120,6.69,72440.8,-9.03,-34.83,-35.01,0,*52
1514855034.78,44121,6.75,72446.3,-9.05,-34.53,-34.83,0,*53
1514855036.02,44122,6.75,72444.3,-9.03,-34.89,-34.89,0,*5B
1514855037.26,44123,6.75,72440.8,-9.05,-35.01,-35.07,0,*5A
1514855038.55,44124,6.75,72442.8,-9.03,-34.83,-35.07,0,*50
1514855039.82,44125,6.69,72436.5,-9.05,-34.83,-35.07,0,*57
1514855041.08,44126,6.75,72442.3,-9.05,-34.83,-35.07,0,*54
1514855042.32,44127,6.75,72446.0,-9.05,-34.83,-35.17,0,*54
1514855043.61,44128,6.69,72436.3,-9.03,-35.07,-35.23,0,*57
1514855044.86,44129,6.75,72440.5,-9.05,-34.53,-34.71,0,*56
1514855046.1,44130,6.69,72440.5,-9.03,-34.71,-35.01,0,*5E
1514855047.37,44131,6.69,72438.0,-9.03,-35.01,-35.07,0,*5F
1514855048.63,44132,6.75,72442.0,-9.03,-34.89,-35.07,0,*5D
1514855049.9,44133,6.75,72442.5,-9.03,-34.83,-35.01,0,*50
1514855051.17,44134,6.69,72440.0,-9.03,-35.01,-35.07,0,*5A
1514855052.46,44135,6.75,72444.0,-9.03,-35.07,-35.23,0,*5B
1514855053.68,44136,6.69,72444.3,-9.05,-35.01,-35.29,0,*52
1514855054.95,44137,6.69,72440.8,-9.05,-34.53,-34.83,0,*54
1514855056.23,44138,6.75,72442.8,-9.03,-34.65,-34.83,0,*58
1514855057.52,44139,6.75,72444.8,-9.03,-34.65,-34.83,0,*59
1514855058.81,44140,6.75,72440.0,-9.03,-34.65,-34.83,0,*57
1514855060.08,44141,6.69,72442.0,-9.03,-34.35,-34.71,0,*5E
1514855061.35,44142,6.75,72444.8,-9.03,-34.65,-34.71,0,*58
1514855062.61,44143,6.75,72442.8,-9.03,-34.65,-34.89,0,*5E
1514855063.88,44144,6.69,72440.5,-8.99,-34.77,-34.95,0,*55
1514855065.14,44145,6.75,72444.0,-8.99,-34.59,-34.83,0,*5F
1514855066.41,44146,6.69,72440.8,-9.03,-34.65,-34.89,0,*5B
1514855067.67,44147,6.75,72442.5,-8.99,-34.77,-34.95,0,*56
1514855068.93,44148,6.69,72440.8,-9.03,-34.89,-35.07,0,*50
1514855070.2,44149,6.75,72442.8,-8.99,-34.95,-35.13,0,*5B
1514855071.46,44150,6.69,72440.3,-8.99,-34.95,-35.13,0,*53
1514855072.7,44151,6.75,72446.3,-8.99,-35.01,-35.17,0,*5A
1514855073.95,44152,6.69,72440.3,-8.97,-34.95,-35.01,0,*5C
1514855075.19,44153,6.69,72440.3,-8.99,-34.59,-34.77,0,*53
1514855076.46,44154,6.75,72444.0,-9.03,-34.53,-34.71,0,*5A
1514855077.72,44155,6.69,72442.8,-8.99,-34.83,-35.01,0,*52
1514855078.96,44156,6.75,72442.0,-8.99,-35.01,-35.17,0,*5D
1514855080.19,44157,6.69,72442.0,-8.99,-35.13,-35.17,0,*5F
1514855081.48,44158,6.69,72440.8,-9.03,-35.23,-35.41,0,*52
1514855082.74,44159,6.69,72440.0,-8.99,-34.95,-35.13,0,*5A
1514855084.0,44160,6.75,72444.0,-9.03,-34.89,-35.07,0,*5A
1514855085.27,44161,6.75,72442.8,-9.03,-35.01,-35.07,0,*5A
1514855086.54,44162,6.69,72442.5,-9.03,-35.01,-35.07,0,*59
1514855087.81,44163,6.75,72442.8,-9.03,-34.83,-35.01,0,*55
1514855089.09,44164,6.69,72442.0,-9.03,-35.07,-35.23,0,*5F
1514855090.38,44165,6.75,72446.8,-9.03,-35.23,-35.41,0,*5C
1514855091.65,44166,6.69,72442.0,-9.03,-35.23,-35.29,0,*51
1514855092.9,44167,6.75,72444.8,-9.03,-35.17,-35.23,0,*5D
1514855094.15,44168,6.75,72444.8,-9.03,-35.29,-35.29,0,*55
1514855095.38,44169,6.69,72442.8,-9.05,-35.17,-35.23,0,*55
1514855096.62,44170,6.69,72442.0,-9.03,-35.17,-35.29,0,*51
1514855097.86,44171,6.69,72442.8,-9.03,-35.17,-35.29,0,*50
1514855099.15,44172,6.69,72440.5,-9.03,-35.23,-35.41,0,*5A
1514855100.41,44173,6.69,72444.0,-9.05,-35.07,-35.23,0,*5F
1514855101.62,44174,6.69,72444.8,-9.05,-35.17,-35.17,0,*5E
1514855102.84,44175,6.69,72442.0,-9.05,-35.29,-35.29,0,*5F
1514855104.09,44176,6.69,72446.0,-9.05,-35.23,-35.29,0,*56
1514855105.32,44177,6.75,72446.3,-9.05,-35.23,-35.47,0,*5F
1514855106.57,44178,6.69,72446.5,-9.05,-35.01,-35.23,0,*52
1514855107.81,44179,6.69,72444.0,-9.05,-34.83,-35.01,0,*58
1514855109.02,44180,6.69,72444.3,-9.05,-34.89,-35.17,0,*53
1514855110.31,44181,6.69,72444.5,-9.07,-35.23,-35.35,0,*51
1514855111.56,44182,6.69,72442.5,-9.07,-35.47,-35.53,0,*50
1514855112.79,44183,6.75,72442.8,-9.09,-35.29,-35.47,0,*52
1514855114.03,44184,6.75,72444.0,-9.09,-35.29,-35.53,0,*50
1514855115.29,44185,6.75,72444.8,-9.07,-35.29,-35.35,0,*5F
1514855116.56,44186,6.75,72444.0,-9.07,-35.07,-35.29,0,*5D
1514855117.83,44187,6.69,72442.5,-9.07,-34.95,-35.13,0,*5F
1514855119.06,44188,6.69,72440.0,-9.07,-34.89,-35.13,0,*5D
1514855120.3,44189,6.69,72440.3,-9.07,-35.13,-35.29,0,*57
1514855121.56,44190,6.75,72446.5,-9.07,-35.35,-35.47,0,*53
1514855122.78,44191,6.69,72442.3,-9.09,-35.29,-35.47,0,*51
1514855124.0,44192,6.69,72444.5,-9.09,-35.29,-35.47,0,*52
1514855125.26,44193,6.69,72442.8,-9.07,-35.35,-35.47,0,*50
1514855126.52,44194,6.69,72442.3,-9.09,-35.35,-35.53,0,*5C
1514855127.79,44195,6.69,72446.0,-9.09,-35.35,-35.53,0,*5D
1514855129.04,44196,6.69,72444.0,-9.09,-35.07,-35.29,0,*52
1514855130.33,44197,6.69,72442.5,-9.07,-34.95,-34.95,0,*51
1514855131.62,44198,6.75,72442.5,-9.07,-35.07,-35.23,0,*58
1514855132.9,44199,6.69,72440.8,-9.07,-35.23,-35.35,0,*58
1514855134.13,44200,6.69,72442.0,-9.09,-35.29,-35.29,0,*52
1514855135.39,44201,6.69,72440.5,-9.09,-35.07,-35.23,0,*55
1514855136.64,44202,6.69,72440.5,-9.09,-35.07,-35.13,0,*55
1514855137.86,44203,6.69,72440.5,-9.09,-34.77,-34.89,0,*50
1514855139.15,44204,6.69,72440.3,-9.07,-34.95,-35.07,0,*52
1514855140.41,44205,6.69,72440.3,-9.07,-34.89,-34.95,0,*54
1514855141.63,44206,6.75,72442.5,-9.09,-34.71,-34.89,0,*53
1514855142.89,44207,6.69,72440.3,-9.07,-34.89,-34.95,0,*56
1514855144.16,44208,6.69,72436.3,-9.09,-34.95,-35.07,0,*50
1514855145.45,44209,6.69,72442.3,-9.07,-34.95,-35.07,0,*5F
1514855146.74,44210,6.69,72438.0,-9.07,-34.95,-35.07,0,*57
1514855147.99,44211,6.69,72440.8,-9.09,-34.95,-35.13,0,*5D
1514855149.27,44212,6.69,72442.3,-9.09,-34.95,-34.95,0,*51
1514855150.55,44213,6.75,72444.3,-9.07,-35.07,-35.07,0,*5E
1514855151.77,44214,6.75,72444.0,-9.09,-34.89,-35.13,0,*55
1514855153.0,44215,6.69,72442.8,-9.09,-34.59,-34.77,0,*5A
1514855154.24,44216,6.69,72442.5,-9.07,-34.71,-34.89,0,*5C
1514855155.52,44217,6.69,72438.0,-9.07,-34.95,-35.07,0,*50
1514855156.78,44218,6.69,72440.5,-9.07,-34.89,-35.07,0,*52
1514855158.07,44219,6.69,72440.0,-9.07,-35.07,-35.23,0,*52
1514855159.35,44220,6.69,72440.0,-9.07,-35.07,-35.23,0,*58
1514855160.57,44221,6.69,72438.0,-9.09,-34.71,-34.89,0,*56
1514855161.81,44222,6.69,72438.5,-9.07,-34.59,-34.89,0,*51
1514855163.08,44223,6.69,72438.3,-9.07,-34.77,-34.95,0,*51
1514855164.34,44224,6.75,72442.3,-9.07,-34.89,-35.07,0,*5D
1514855165.55,44225,6.69,72440.3,-9.05,-34.71,-34.89,0,*5E
1514855166.81,44226,6.69,72440.3,-9.07,-34.89,-35.07,0,*5F
1514855168.06,44227,6.69,72440.0,-9.09,-35.07,-35.13,0,*52
1514855169.33,44228,6.69,72442.8,-9.09,-35.23,-35.35,0,*5F
1514855170.57,44229,6.69,72438.8,-9.09,-35.23,-35.29,0,*53
1514855171.86,44230,6.69,72442.0,-9.07,-35.07,-35.23,0,*59
1514855173.14,44231,6.75,72442.3,-9.07,-35.23,-35.35,0,*59
1514855174.38,44232,6.69,72438.5,-9.07,-35.29,-35.29,0,*5D
1514855175.65,44233,6.69,72440.5,-9.07,-35.07,-35.13,0,*59
1514855176.91,44234,6.69,72438.3,-9.07,-35.29,-35.35,0,*56
1514855178.19,44235,6.69,72438.8,-9.07,-35.07,-35.23,0,*5C
1514855179.48,44236,6.69,72438.8,-9.07,-35.07,-35.07,0,*59
1514855180.74,44237,6.69,72436.0,-9.07,-35.23,-35.29,0,*52
1514855182.01,44238,6.75,72442.5,-9.07,-35.23,-35.29,0,*5D
1514855183.23,44239,6.69,72442.3,-9.09,-35.13,-35.29,0,*51
1514855184.51,44240,6.69,72436.8,-9.07,-35.23,-35.35,0,*5F
1514855185.77,44241,6.75,72442.0,-9.07,-35.29,-35.35,0,*54
1514855186.99,44242,6.69,72440.8,-9.09,-35.29,-35.47,0,*5C
1514855188.23,44243,6.69,72440.5,-9.07,-35.29,-35.47,0,*53
1514855189.48,44244,6.69,72438.8,-9.09,-34.71,-35.07,0,*52
1514855190.75,44245,6.69,72438.8,-9.07,-34.71,-34.95,0,*57
1514855191.99,44246,6.69,72440.5,-9.07,-34.71,-34.89,0,*59
1514855193.27,44247,6.69,72440.5,-9.07,-35.07,-35.23,0,*59
1514855194.49,44248,6.75,72440.8,-9.09,-35.13,-35.29,0,*57
1514855195.76,44249,6.69,72444.0,-9.07,-34.95,-35.13,0,*5E
1514855197.03,44250,6.69,72442.3,-9.07,-35.07,-35.13,0,*5C
1514855198.27,44251,6.75,72444.3,-9.09,-34.89,-34.95,0,*5B
1514855199.51,44252,6.69,72442.8,-9.07,-34.77,-34.89,0,*5A
1514855200.79,44253,6.69,72442.0,-9.07,-34.95,-35.07,0,*50
1514855202.08,44254,6.69,72440.3,-9.07,-34.95,-35.07,0,*57
1514855203.34,44255,6.69,72442.8,-9.07,-34.89,-34.95,0,*51
1514855204.58,44256,6.69,72440.5,-9.07,-34.77,-34.89,0,*5E
1514855205.84,44257,6.69,72440.0,-9.07,-34.89,-35.07,0,*59
1514855207.1,44258,6.69,72438.3,-9.07,-34.95,-35.13,0,*5E
1514855208.39,44259,6.69,72438.5,-9.07,-34.95,-35.07,0,*5A
1514855209.67,44260,6.69,72438.5,-9.07,-35.23,-35.35,0,*5D
1514855210.91,44261,6.69,72440.8,-9.09,-35.35,-35.47,0,*50
1514855212.17,44262,6.69,72436.5,-9.07,-35.29,-35.35,0,*55
1514855213.41,44263,6.69,72438.8,-9.07,-35.13,-35.29,0,*50
1514855214.65,44264,6.69,72438.8,-9.09,-34.89,-35.07,0,*57
1514855215.92,44265,6.69,72438.0,-9.07,-34.95,-35.13,0,*50
1514855217.16,44266,6.69,72438.8,-9.07,-35.13,-35.29,0,*55
1514855218.44,44267,6.69,72442.8,-9.07,-35.23,-35.23,0,*5D
1514855219.72,44268,6.69,72438.8,-9.07,-35.23,-35.35,0,*55
1514855220.94,44269,6.69,72438.0,-9.09,-35.29,-35.47,0,*55
1514855222.18,44270,6.69,72442.3,-9.09,-35.29,-35.35,0,*58
1514855223.45,44271,6.69,72442.0,-9.07,-35.29,-35.35,0,*57
1514855224.69,44272,6.69,72442.0,-9.09,-34.89,-34.95,0,*5A
1514855225.96,44273,6.69,72442.0,-9.07,-34.59,-34.95,0,*58
1514855227.25,44274,6.69,72442.5,-9.07,-34.95,-34.95,0,*5F
1514855228.51,44275,6.69,72438.5,-9.07,-34.89,-35.07,0,*59
1514855229.77,44276,6.69,72440.8,-9.09,-35.23,-35.23,0,*53
1514855231.01,44277,6.69,72438.3,-9.07,-35.13,-35.29,0,*55
1514855232.23,44278,6.69,72440.0,-9.09,-35.13,-35.29,0,*54
1514855233.49,44279,6.75,72444.0,-9.07,-35.23,-35.29,0,*58
1514855234.75,44280,6.69,72440.5,-9.07,-35.29,-35.35,0,*59
1514855236.01,44281,6.69,72440.3,-9.07,-35.29,-35.53,0,*58
1514855237.24,44282,6.69,72442.5,-9.09,-35.29,-35.47,0,*50
1514855238.5,44283,6.69,72440.8,-9.07,-35.29,-35.35,0,*5A
1514855239.76,44284,6.75,72442.5,-9.09,-35.23,-35.35,0,*59
1514855241.0,44285,6.69,72438.8,-9.09,-35.47,-35.53,0,*5A
1514855242.26,44286,6.69,72440.5,-9.09,-35.53,-35.53,0,*5C
1514855243.51,44287,6.69,72440.8,-9.09,-35.47,-35.53,0,*58
1514855244.75,44288,6.69,72440.3,-9.09,-35.35,-35.47,0,*57
1514855246.01,44289,6.69,72442.8,-9.09,-35.35,-35.65,0,*56
1514855247.23,44290,6.75,72444.8,-9.09,-35.47,-35.47,0,*5B
1514855248.49,44291,6.69,72440.5,-9.11,-35.35,-35.59,0,*59
1514855249.76,44292,6.69,72442.5,-9.11,-35.35,-35.59,0,*5A
1514855251.04,44293,6.69,72442.0,-9.11,-35.35,-35.35,0,*51
1514855252.31,44294,6.69,72440.5,-9.11,-35.17,-35.41,0,*55
1514855253.56,44295,6.69,72442.0,-9.11,-35.41,-35.59,0,*5E
1514855254.83,44296,6.69,72440.0,-9.11,-35.35,-35.59,0,*5E
1514855256.09,44297,6.69,72440.5,-9.13,-35.35,-35.53,0,*57
1514855257.35,44298,6.69,72442.8,-9.13,-35.41,-35.41,0,*58
1514855258.61,44299,6.69,72442.5,-9.11,-35.53,-35.59,0,*51
1514855259.84,44300,6.69,72438.8,-9.13,-35.41,-35.59,0,*51
1514855261.07,44301,6.69,72440.8,-9.13,-35.41,-35.59,0,*50
1514855262.3,44302,6.75,72442.8,-9.13,-35.41,-35.59,0,*53
1514855263.55,44303,6.69,72438.8,-9.13,-35.29,-35.41,0,*55
1514855264.81,44304,6.69,72440.8,-9.13,-35.35,-35.41,0,*5F
1514855266.07,44305,6.69,72440.5,-9.13,-35.35,-35.35,0,*5D
1514855267.33,44306,6.69,72442.3,-9.13,-35.41,-35.41,0,*5E
1514855268.59,44307,6.69,72440.0,-9.13,-35.41,-35.53,0,*5C
1514855269.84,44308,6.69,72440.8,-9.15,-35.41,-35.59,0,*5F
1514855271.08,44309,6.69,72442.5,-9.15,-35.47,-35.59,0,*58
1514855272.31,44310,6.69,72440.8,-9.15,-35.47,-35.59,0,*50
1514855273.57,44311,6.75,72446.5,-9.15,-35.41,-35.59,0,*57
1514855274.81,44312,6.69,72438.8,-9.15,-35.47,-35.59,0,*52
1514855276.04,44313,6.69,72440.8,-9.15,-35.47,-35.59,0,*53
1514855277.28,44314,6.69,72440.8,-9.17,-35.47,-35.59,0,*56
1514855278.56,44315,6.69,72446.3,-9.17,-35.41,-35.65,0,*5E
1514855279.85,44316,6.69,72444.5,-9.17,-35.41,-35.41,0,*5B
1514855281.11,44317,6.69,72440.3,-9.17,-35.41,-35.59,0,*53
1514855282.35,44318,6.69,72442.0,-9.17,-35.47,-35.47,0,*55
1514855283.6,44319,6.69,72442.0,-9.17,-35.17,-35.23,0,*53
1514855284.87,44320,6.69,72442.3,-9.17,-34.89,-35.07,0,*59
1514855286.11,44321,6.69,72440.8,-9.17,-35.01,-35.17,0,*58
1514855287.4,44322,6.69,72438.0,-9.17,-35.07,-35.23,0,*5A
1514855288.69,44323,6.69,72436.5,-9.17,-35.07,-35.23,0,*5B
1514855289.96,44324,6.69,72438.8,-9.15,-35.07,-35.17,0,*59
1514855291.21,44325,6.69,72436.5,-9.17,-35.17,-35.23,0,*5C
1514855292.48,44326,6.69,72436.8,-9.17,-35.01,-35.07,0,*5E
1514855293.75,44327,6.69,72440.8,-9.17,-35.07,-35.17,0,*58
1514855295.02,44328,6.69,72442.0,-9.17,-35.23,-35.47,0,*54
1514855296.3,44329,6.69,72440.5,-9.15,-35.35,-35.41,0,*56
1514855297.56,44330,6.69,72436.8,-9.17,-35.35,-35.47,0,*5A
1514855298.83,44331,6.69,72442.5,-9.17,-35.07,-35.17,0,*5F
1514855300.09,44332,6.69,72438.8,-9.17,-34.89,-35.07,0,*5A
1514855301.39,44333,6.69,72436.5,-9.17,-34.65,-34.83,0,*54
1514855302.66,44334,6.69,72436.3,-9.17,-34.83,-35.01,0,*50
1514855303.95,44335,6.69,72436.3,-9.17,-35.07,-35.23,0,*5C
1514855305.19,44336,6.69,72440.3,-9.17,-35.01,-35.17,0,*5E
1514855306.45,44337,6.69,72440.3,-9.17,-35.17,-35.23,0,*5F
1514855307.72,44338,6.69,72440.5,-9.17,-35.07,-35.17,0,*56
1514855309.01,44339,6.69,72440.0,-9.17,-35.07,-35.23,0,*50
1514855310.25,44340,6.69,72438.3,-9.17,-34.47,-34.71,0,*5D